Abraham Lincoln Capital Airport Airport (SPI)

 

Airport Diagram
Current Weather/Forecast (VFR Conditions)
METAR KSPI 280552Z AUTO 00000KT 10SM SCT014 OVC034 13/12 A2995 RMK AO2 SLP142 T01280117 10172 20122 401780122 51003
TAF KSPI 280520Z 2806/2906 VRB03KT 1SM BR FEW002 SCT250 TEMPO 2808/2812 1/4SM FG VV002 FM281400 17005KT P6SM SCT025 BKN250 FM290000 16010G18KT P6SM SCT250

All Charts
General
Chart Name Download
AIRPORT DIAGRAM
TAKEOFF MINIMUMS
ALTERNATE MINIMUMS
RADAR MINIMUMS
HOT SPOT

Approaches
Chart Name Download
ILS OR LOC RWY 04
ILS OR LOC RWY 22
ILS OR LOC RWY 31
RNAV (GPS) RWY 04
RNAV (GPS) RWY 13
RNAV (GPS) RWY 22
RNAV (GPS) RWY 31
VOR/DME RWY 13
VOR/DME RWY 22
VOR/DME RWY 31
VOR RWY 04